Regional Weather Roundup
Issued by NWS

Home | Current Version | Previous Version | Text Only | Print | Product List | Glossary On
Versions: 1 2 3 4 5 6 7 8 9 10 11 12 13 14 15 16 17 18 19 20 21 22 23 24 25 26 27 28 29 30 31 32 33 34 35 36 37 38 39 40 41 42 43 44 45 46 47 48 49 50
000
ASUS43 KLSX 271959
RWRMO

WEATHER SUMMARY FOR MISSOURI
NATIONAL WEATHER SERVICE SPRINGFIELD MO
200 PM CST THU NOV 27 2014

NOTE: "FAIR" INDICATES FEW OR NO CLOUDS BELOW 12,000 FEET WITH NO
       SIGNIFICANT WEATHER AND/OR OBSTRUCTIONS TO VISIBILITY.
       CURRENT SKY AND/OR WEATHER CONDITIONS ARE NOT AVAILABLE FOR
       CHILLICOTHE AND FARMINGTON.

MOZ001>031-035>038-043-044-053-054-272100-
...NORTHERN AND WESTERN MISSOURI...

CITY           SKY/WX    TMP DP  RH WIND       PRES   REMARKS
KANSAS CTY INT MOSUNNY   33  21  61 CALM      30.43F
KANSAS C DTWN  SUNNY     36  20  52 VRB3      30.44F
LEE`S SUMMIT   SUNNY     36  21  54 S7        30.44F
ST JOSEPH      MOSUNNY   30  16  56 CALM      30.46F
CHILLICOTHE      N/A     29  16  58 NW5       30.49F WCI  24
KIRKSVILLE     MOSUNNY   27  15  61 NW7       30.46F WCI  19

$$
MOZ066>068-077>081-088>096-101>105-272100-
...SOUTHWEST MISSOURI...

CITY           SKY/WX    TMP DP  RH WIND       PRES   REMARKS
SPRINGFIELD    SUNNY     41  22  46 NW3       30.44F
JOPLIN         SUNNY     41  21  44 VRB5      30.46F

$$
MOZ032>034-039>042-045>050-055>058-069>072-272100-
...CENTRAL MISSOURI...

CITY           SKY/WX    TMP DP  RH WIND       PRES   REMARKS
COLUMBIA       CLOUDY    34  22  61 NW6       30.45F WCI  29
JEFFERSON CITY CLOUDY    34  22  61 W8        30.47F WCI  27
ROLLA          CLOUDY    32  23  69 W5        30.43F WCI  27
SEDALIA        CLOUDY    33  22  63 NW3       30.47F
OSAGE BEACH    CLOUDY    36  23  60 SW5       30.46F

$$
MOZ051-052-059>065-272100-
...EAST CENTRAL MISSOURI...

CITY           SKY/WX    TMP DP  RH WIND       PRES   REMARKS
ST LOUIS INTL  MOSUNNY   34  21  59 NW13G18   30.46S WCI  25
SPIRIT OF STL  MOSUNNY   36  22  56 NW16      30.45F WCI  26
ST CHARLES     MOSUNNY   32  20  61 NW12      30.46F WCI  23

$$
MOZ072>076-082>087-097>100-106>115-272100-
...SOUTH CENTRAL AND SOUTHEAST MISSOURI...

CITY           SKY/WX    TMP DP  RH WIND       PRES   REMARKS
CAPE GIRARDEAU PTSUNNY   37  26  64 VRB5      30.47F
FARMINGTON     PTSUNNY   36  21  55 NW10G16   30.44F WCI  28
POPLAR BLUFF   SUNNY     42  24  49 NW10G16   30.45F
WEST PLAINS    SUNNY     43  20  39 NW7       30.44F

$$



USA.gov is the U.S. government's official web portal to all federal, state and local government web resources and services.